Overview Statistics Trail Chart Weather Telemetry Raw packets
 

This is the latest recevied weather packets stored in our database for station/object VE8SKI. If no packets are shown the sender has not sent any weather packets the latest 10 day(s).

<< 107 108 109 110 111 112 113 >>
Time Temp. Humidity Pressure Rain* Wind** Luminosity Snow
1777275225 -8.89° C 88% 1027.6 hPa 0 mm 0.45 m/s, 89° - -
1777274925 -8.89° C 88% 1027.5 hPa 0 mm 0.89 m/s, 91° - -
1777274625 -8.89° C 88% 1027.6 hPa 0 mm 0 m/s - -
1777274322 -8.89° C 87% 1027.6 hPa 0 mm 0 m/s - -
1777274022 -8.89° C 87% 1027.5 hPa 0 mm 0 m/s - -
1777273722 -8.89° C 87% 1027.5 hPa 0 mm 0 m/s - -
1777273422 -8.33° C 87% 1027.5 hPa 0 mm 0 m/s - -
1777273122 -8.33° C 86% 1027.5 hPa 0 mm 0.89 m/s, 75° - -
1777272822 -8.33° C 86% 1027.5 hPa 0 mm 0.89 m/s, 77° - -
1777272519 -8.33° C 86% 1027.4 hPa 0 mm 0.89 m/s, 66° - -
1777272219 -8.33° C 85% 1027.4 hPa 0 mm 0.89 m/s, 51° - -
1777271919 -7.78° C 85% 1027.4 hPa 0 mm 0 m/s - -
1777271619 -7.78° C 84% 1027.5 hPa 0 mm 0.89 m/s, 35° - -
1777271319 -7.78° C 84% 1027.4 hPa 0 mm 0.89 m/s, 42° - -
1777271019 -7.22° C 84% 1027.3 hPa 0 mm 1.34 m/s, 66° - -
1777270716 -7.22° C 84% 1027.3 hPa 0 mm 1.34 m/s, 91° - -
1777270416 -7.22° C 84% 1027.3 hPa 0 mm 1.79 m/s, 77° - -
1777270116 -7.22° C 83% 1027.3 hPa 0 mm 1.34 m/s, 94° - -
1777269816 -7.22° C 83% 1027.3 hPa 0 mm 1.34 m/s, 115° - -
1777269517 -7.22° C 83% 1027.3 hPa 0 mm 0.89 m/s, 56° - -
1777269216 -7.22° C 83% 1027.2 hPa 0 mm 0.89 m/s, 73° - -
1777268914 -6.67° C 82% 1027.2 hPa 0 mm 0.89 m/s, 69° - -
1777268614 -6.67° C 82% 1027.2 hPa 0 mm 0.89 m/s, 80° - -
1777268314 -6.67° C 81% 1027.1 hPa 0 mm 0.89 m/s, 56° - -
1777268014 -6.67° C 80% 1027.1 hPa 0 mm 0.45 m/s, 39° - -

* Rain latest hour (hover to see other rain measurements)
** Current wind speed in m/s (hover to see current wind gust speed)